Milwaukee Timmerman, WI

7:06 PM CDT on April 21, 2018 (GMT -0500)
Timmerman

Weather History for KMWC - May, 2013

Change the Weather History Date:

Saturday, May 18, 2013

  Actual Average Record
Temperature  
Mean Temperature 60 °F -  
Max Temperature 71 °F 72 °F 90 °F (1977)
Min Temperature 48 °F 50 °F 34 °F (1955)
Degree Days  
Heating Degree Days 6    
Growing Degree Days 10 (Base 50)    
Moisture  
Dew Point 44 °F    
Average Humidity 66    
Maximum Humidity 82    
Minimum Humidity 45    
Precipitation  
Precipitation 0.00 in - - ()
Sea Level Pressure  
Sea Level Pressure 30.05 in    
Wind  
Wind Speed 3 mph (East)    
Max Wind Speed 9 mph    
Max Gust Speed -    
Visibility 10 miles    
Events      
Averages and records for this station are not official NWS values.
T = Trace of Precipitation, MM = Missing Value Source: NWS Daily Summary

Daily Weather History Graph

Daily Weather History Graph

Search for Another Location

Airport or City:

Astronomy

May. 18, 2013 Rise Set
Actual Time 5:25 AM CDT 8:12 PM CDT
Civil Twilight 4:52 AM CDT 8:45 PM CDT
Nautical Twilight 4:10 AM CDT 9:27 PM CDT
Astronomical Twilight 3:22 AM CDT 10:16 PM CDT
Moon 1:04 PM CDT (5/18) 1:29 AM CDT (5/18)
Length of Visible Light 15h 53m
Length of Day
14h 47m
First Quarter, 55% of the Moon is Illuminated
May 18
First Quarter
May 24
Full
May 31
Last Quarter
Jun 8
New
Jun 16
First Quarter

Hourly Weather History & Observations

Time (CDT) Temp. Dew Point Humidity Pressure Visibility Wind Dir Wind Speed Gust Speed Precip Events Conditions
12:15 AM 50.0 °F 42.8 °F 76% 30.06 in 10.0 mi NE 4.6 mph - N/A   Clear
12:35 AM 48.2 °F 42.8 °F 82% 30.07 in 10.0 mi NE 3.5 mph - N/A   Clear
12:55 AM 48.2 °F 42.8 °F 82% 30.06 in 10.0 mi Calm Calm - N/A   Clear
1:15 AM 48.2 °F 42.8 °F 82% 30.06 in 10.0 mi North 3.5 mph - N/A   Mostly Cloudy
1:35 AM 50.0 °F 42.8 °F 76% 30.06 in 10.0 mi Calm Calm - N/A   Overcast
1:55 AM 50.0 °F 42.8 °F 76% 30.07 in 10.0 mi ENE 3.5 mph - N/A   Overcast
2:15 AM 51.8 °F 41.0 °F 67% 30.08 in 10.0 mi East 4.6 mph - N/A   Overcast
2:35 AM 51.8 °F 41.0 °F 67% 30.08 in 10.0 mi Calm Calm - N/A   Overcast
2:55 AM 51.8 °F 41.0 °F 67% 30.08 in 10.0 mi Calm Calm - N/A   Overcast
3:15 AM 51.8 °F 42.8 °F 71% 30.08 in 10.0 mi NE 4.6 mph - N/A   Overcast
3:35 AM 51.8 °F 42.8 °F 71% 30.08 in 10.0 mi ENE 3.5 mph - N/A   Overcast
3:55 AM 51.8 °F 42.8 °F 71% 30.08 in 10.0 mi Calm Calm - N/A   Overcast
4:15 AM 51.8 °F 42.8 °F 71% 30.09 in 10.0 mi Calm Calm - N/A   Overcast
4:35 AM 51.8 °F 42.8 °F 71% 30.08 in 10.0 mi ESE 3.5 mph - N/A   Overcast
4:55 AM 51.8 °F 42.8 °F 71% 30.08 in 10.0 mi East 3.5 mph - N/A   Overcast
5:15 AM 51.8 °F 42.8 °F 71% 30.08 in 10.0 mi Calm Calm - N/A   Overcast
5:35 AM 51.8 °F 42.8 °F 71% 30.08 in 10.0 mi Calm Calm - N/A   Overcast
5:55 AM 51.8 °F 42.8 °F 71% 30.09 in 10.0 mi ENE 3.5 mph - N/A   Overcast
6:15 AM 51.8 °F 42.8 °F 71% 30.09 in 10.0 mi East 3.5 mph - N/A   Overcast
6:35 AM 51.8 °F 42.8 °F 71% 30.09 in 10.0 mi East 3.5 mph - N/A   Overcast
6:45 AM 53.6 °F 42.8 °F 67% 30.10 in 10.0 mi Calm Calm - N/A   Overcast
6:55 AM 51.8 °F 42.8 °F 71% 30.10 in 10.0 mi East 3.5 mph - N/A   Overcast
7:45 AM 55.4 °F 42.8 °F 63% 30.10 in 10.0 mi SE 5.8 mph - N/A   Overcast
8:45 AM 55.4 °F 42.8 °F 63% 30.09 in 10.0 mi SE 8.1 mph - N/A   Overcast
9:45 AM 59.0 °F 42.8 °F 55% 30.08 in 10.0 mi SE 5.8 mph - N/A   Overcast
10:45 AM 64.4 °F 44.6 °F 49% 30.08 in 10.0 mi East 4.6 mph - N/A   Overcast
11:05 AM 64.4 °F 44.6 °F 49% 30.08 in 10.0 mi ESE 4.6 mph - N/A   Scattered Clouds
11:45 AM 64.4 °F 42.8 °F 45% 30.08 in 10.0 mi East 5.8 mph - N/A   Clear
12:45 PM 66.2 °F 46.4 °F 49% 30.07 in 10.0 mi Calm Calm - N/A   Clear
2:50 PM 71.6 °F 53.6 °F 53% 30.03 in 10.0 mi ENE 6.9 mph - N/A   Clear
3:45 PM 69.8 °F 50.0 °F 49% 30.01 in 10.0 mi East 6.9 mph - N/A   Clear
5:45 PM 69.8 °F 51.8 °F 53% 30.00 in 10.0 mi East 5.8 mph - N/A   Clear
6:45 PM 66.2 °F 50.0 °F 56% 29.99 in 10.0 mi East 9.2 mph - N/A   Clear
7:45 PM 64.4 °F 51.8 °F 64% 30.00 in 10.0 mi ENE 4.6 mph - N/A   Clear
8:45 PM 60.8 °F 50.0 °F 68% 29.99 in 10.0 mi East 4.6 mph - N/A   Clear
9:15 PM 59.0 °F 48.2 °F 67% 30.00 in 10.0 mi East 3.5 mph - N/A   Clear
9:35 PM 59.0 °F 46.4 °F 63% 30.01 in 10.0 mi Calm Calm - N/A   Clear
9:55 PM 57.2 °F 44.6 °F 63% 30.01 in 10.0 mi Calm Calm - N/A   Clear
10:15 PM 55.4 °F 44.6 °F 67% 30.00 in 10.0 mi East 3.5 mph - N/A   Clear
10:35 PM 55.4 °F 44.6 °F 67% 30.00 in 10.0 mi Calm Calm - N/A   Clear
10:55 PM 55.4 °F 44.6 °F 67% 29.99 in 10.0 mi East 3.5 mph - N/A   Clear
11:15 PM 55.4 °F 44.6 °F 67% 29.99 in 10.0 mi Calm Calm - N/A   Clear
11:35 PM 55.4 °F 44.6 °F 67% 29.99 in 10.0 mi Calm Calm - N/A   Clear
11:55 PM 55.4 °F 44.6 °F 67% 29.98 in 10.0 mi Calm Calm - N/A   Clear